SCP
1 1 1 1 1 1 1 1 1 1 1 1 1 1 1 0 0 0 0 0 0 1 1 1 1 1 1 1 1 1 1 1 1 1 1 1 1 1 1 1 1 1 1
1 1 1 1 1 1 1 1 1 1 1 1 1 1 1 0 0 0 0 0 0 1 1 1 1 1 1 1 1 1 1 1 1 1 1 1 1 1 1 1 1 1 1
0 1 1 1 1 1 1 1 0 1 1 1 1 1 1 1 0 0 0 0 0 1 1 1 1 1 1 1 1 1 1 0 0 1 1 1 1 1 1 1 1 1 1
0 1 1 1 1 1 1 1 0 0 1 1 1 1 1 1 0 0 0 0 1 1 1 1 1 1 1 1 1 1 1 0 0 0 1 1 1 1 1 1 1 1 2
0 0 1 1 1 1 1 1 0 0 0 1 1 1 1 1 0 0 0 0 1 1 1 1 1 1 1 1 1 1 1 0 0 1 1 1 1 1 1 1 1 1 2
0 0 0 0 0 0 0 0 0 0 0 1 1 1 1 1 0 0 0 0 0 1 1 1 1 0 1 1 1 1 1 1 0 1 1 1 1 1 1 1 1 1 2
0 0 0 0 0 0 0 0 0 0 0 0 1 1 1 1 0 0 0 0 0 0 0 0 0 0 0 0 1 1 1 1 1 1 1 1 1 1 1 1 1 1 1
0 0 0 0 0 0 0 0 0 0 0 0 1 1 1 1 0 0 0 0 0 0 0 0 0 0 0 0 0 1 1 1 1 1 1 1 1 1 2 2 2 1 1
0 0 0 0 0 0 0 0 0 0 0 0 0 0 0 0 0 0 0 0 0 0 0 0 0 0 0 0 0 0 1 1 1 0 1 1 1 1 1 1 1 1 1
0 0 0 0 0 0 0 0 0 0 0 0 0 0 0 0 0 0 0 0 0 0 0 0 0 0 0 0 0 0 0 0 0 0 1 1 1 1 1 1 0 0 0
0 0 0 0 0 0 0 0 0 0 0 0 0 0 0 0 0 0 0 0 0 0 0 0 0 0 0 0 0 0 0 0 0 0 0 1 1 1 1 1 0 0 0
0 0 0 0 0 0 0 0 0 0 0 0 0 0 0 0 0 0 0 0 0 0 0 0 0 0 0 0 0 0 0 0 0 0 0 1 1 1 1 1 0 0 0
0 0 0 0 0 0 0 0 0 0 0 0 0 0 0 0 0 0 0 0 0 0 0 0 0 0 0 0 0 0 0 0 0 0 0 0 1 1 1 1 0 0 0
0 0 0 0 0 0 0 0 0 0 0 0 0 0 0 0 0 0 0 0 0 0 0 0 0 0 0 0 0 0 0 0 0 0 0 0 1 1 1 0 0 0 0
0 0 0 0 0 0 0 0 0 0 0 0 0 0 0 0 0 0 0 0 0 0 0 0 0 0 0 0 0 0 0 0 0 0 0 0 0 0 0 0 0 0 0
0 0 0 0 0 0 0 0 0 0 0 0 0 0 0 0 0 0 0 0 0 0 0 0 0 0 0 0 0 0 0 0 0 0 0 0 0 0 0 0 0 0 0
0 0 0 0 0 0 0 0 0 0 0 0 0 0 0 0 0 0 0 0 0 0 0 0 0 0 0 0 0 0 0 0 0 0 0 0 0 0 0 0 0 0 0
0 0 0 0 0 0 0 0 0 0 0 0 0 0 0 0 0 0 0 0 0 0 0 0 0 0 0 0 0 0 0 0 0 0 0 0 0 0 0 0 0 0 0
0 0 0 0 0 0 0 0 0 0 0 0 0 0 0 0 0 0 0 0 0 0 0 0 0 0 0 0 0 0 0 0 0 0 0 0 0 0 0 0 0 0 0
0 0 0 0 0 0 0 0 0 0 0 0 0 0 0 0 0 0 0 0 0 0 0 0 0 0 0 0 0 0 0 0 0 0 0 0 0 0 0 0 0 0 0
0 0 0 0 0 0 0 0 0 0 0 0 0 0 0 0 0 0 0 0 0 0 0 0 0 0 0 0 0 0 0 0 0 0 0 0 0 0 0 0 0 0 0
0 0 0 0 0 0 0 0 0 0 0 0 0 0 0 0 0 0 0 0 0 0 0 0 0 0 0 0 0 0 0 0 0 0 0 0 0 0 0 0 0 0 0
0 0 0 0 0 0 0 0 0 0 0 0 0 0 0 0 0 0 0 0 0 0 0 0 0 0 0 0 0 0 0 0 0 0 0 0 0 0 0 0 0 0 0
1 0 0 0 0 0 0 0 0 0 0 0 0 0 0 0 0 0 0 0 0 0 0 0 0 0 0 0 0 0 0 0 0 0 0 0 0 0 0 0 0 0 0
1 1 0 0 0 0 0 0 0 0 0 0 0 0 0 0 0 0 0 0 0 0 0 0 0 0 0 0 0 0 0 0 0 0 0 0 0 0 0 0 0 0 0
1 1 1 0 0 0 0 0 0 0 0 0 0 0 0 0 0 0 0 0 0 0 0 0 0 0 0 0 0 0 0 0 0 0 0 0 0 0 0 0 0 0 0
Wind_Speed
3 3 2 2 2 2 2 2 2 3 3 3 3 4 3 3 3 2 2 5 5 6 6 7 7 6 6 6 6 6 6 6 6 6 6 6 6 5 6 6 6 6 6
4 4 3 2 2 2 2 2 3 3 3 3 3 3 3 3 3 3 2 3 5 5 5 6 6 6 6 6 5 5 5 5 5 5 5 5 5 5 5 5 6 5 6
4 4 4 3 2 2 3 3 3 3 3 3 3 3 3 3 3 3 2 2 2 3 4 5 5 5 5 5 5 4 5 4 4 4 5 5 5 4 4 4 4 4 5
5 4 4 3 3 3 3 3 3 3 3 3 2 2 2 2 3 2 2 2 2 2 2 4 4 4 4 4 4 4 4 3 3 3 3 4 4 4 4 3 3 4 4
5 4 4 3 3 3 3 3 3 3 3 3 3 2 2 2 2 2 2 2 2 2 1 2 3 3 3 3 3 2 2 2 2 2 3 3 3 4 4 4 4 3 3
5 4 3 4 4 3 3 3 3 3 3 3 4 3 2 2 2 2 2 2 1 2 2 2 2 2 3 2 2 2 1 1 1 1 2 2 3 3 3 3 4 4 3
5 4 3 4 4 4 4 4 4 4 3 3 3 2 2 2 2 1 1 1 1 1 2 2 1 1 1 2 2 2 0 0 0 1 1 2 3 3 3 3 3 4 4
5 4 4 4 4 3 4 4 4 3 2 2 3 3 1 1 1 1 1 1 1 1 1 1 1 1 0 0 1 2 2 1 1 1 1 2 3 3 3 3 3 4 4
5 4 5 4 4 4 4 5 5 5 4 1 2 4 4 3 1 1 1 0 0 0 0 0 1 0 0 0 1 1 2 2 2 2 2 2 3 3 3 3 4 4 5
5 5 5 5 5 4 4 5 4 4 6 4 1 1 2 3 3 1 1 1 0 0 1 1 0 0 0 0 0 1 1 2 3 3 3 3 3 3 3 4 4 4 5
4 5 5 5 5 4 5 5 4 4 4 4 3 2 2 1 2 3 2 1 1 1 1 1 1 1 1 0 1 1 1 2 3 4 4 4 4 4 4 4 4 5 5
3 4 5 5 4 4 4 5 5 5 4 4 3 3 3 3 2 2 2 2 2 2 1 1 1 1 1 1 1 1 1 2 3 4 5 4 4 4 4 5 5 5 6
3 5 5 5 4 4 4 4 4 5 5 5 4 3 2 2 2 3 3 2 1 2 1 1 2 1 1 1 1 1 1 2 3 4 6 5 4 5 5 5 5 6 6
4 5 5 5 5 5 5 4 4 4 4 4 5 4 2 2 2 3 3 3 1 1 2 3 1 1 1 1 2 1 1 3 4 5 6 5 5 5 5 5 5 6 6
4 5 5 5 5 5 5 5 4 4 4 4 4 4 3 2 2 2 2 3 4 3 3 3 2 1 1 1 2 1 2 3 5 5 5 5 5 5 5 5 5 6 6
4 5 5 5 5 5 5 5 4 4 5 4 3 4 3 2 2 2 2 2 2 3 3 3 3 2 1 1 2 1 2 5 5 6 6 5 5 5 5 5 5 6 6
5 5 6 6 6 6 5 5 5 5 6 4 4 5 4 4 3 2 2 2 2 2 3 2 1 1 1 1 2 1 2 2 3 6 7 6 6 5 5 5 5 6 7
5 6 6 6 5 5 5 6 6 6 6 6 5 5 5 4 4 3 3 3 3 3 3 3 2 1 2 2 2 2 2 2 2 5 6 6 6 5 5 6 6 6 7
5 5 5 6 6 5 5 5 6 5 6 6 6 6 5 5 5 3 3 3 3 2 2 2 2 1 1 1 1 2 2 2 3 4 6 6 5 5 6 6 7 7 7
5 5 5 5 5 5 5 5 5 5 4 4 4 5 5 6 6 5 4 4 3 3 2 2 2 1 1 1 1 2 2 2 3 3 4 4 5 6 7 7 8 8 8
4 5 5 5 4 5 5 6 5 5 5 4 4 4 4 5 6 6 5 5 5 4 3 3 2 2 2 1 2 2 3 2 3 2 2 3 3 3 4 6 7 8 9
4 4 4 5 5 4 6 8 6 5 5 5 4 4 4 5 6 7 7 6 6 6 5 4 3 3 4 3 2 2 2 2 3 2 2 4 2 3 3 3 7 9 10
3 4 4 4 4 5 7 7 7 5 5 5 5 4 3 3 5 4 4 4 5 6 7 5 5 5 4 4 3 3 3 3 4 2 2 4 3 4 3 5 10 10 10
3 3 3 4 4 4 7 7 7 5 4 4 4 4 4 4 4 5 4 3 3 4 5 4 5 5 4 4 4 4 4 3 2 2 2 4 3 4 4 4 8 8 9
2 2 3 3 3 4 6 7 6 3 3 4 4 4 4 5 6 7 5 4 3 3 3 4 4 4 3 4 3 2 1 1 3 3 1 2 3 4 4 3 5 8 9
2 2 2 2 2 2 5 6 7 4 4 3 3 3 5 6 7 7 5 5 5 4 2 2 2 2 2 2 3 3 3 2 2 3 2 2 2 2 3 3 2 3 5
Wind_Direction
143 135 134 129 126 120 123 120 115 114 109 107 107 107 105 100 93 76 71 86 96 105 108 108 106 101 97 92 88 80 78 77 74 70 68 65 62 58 56 53 50 50 47
150 147 144 142 143 143 141 139 132 127 116 112 107 106 108 107 98 89 73 79 95 109 115 116 113 110 104 99 93 85 76 77 73 68 64 59 54 52 52 52 50 47 45
152 149 148 152 158 147 137 126 118 111 112 109 103 100 102 107 111 103 90 74 74 88 108 115 115 113 110 108 101 96 84 79 75 65 57 52 46 43 40 42 42 43 41
153 148 150 160 159 143 137 134 128 114 107 108 103 94 95 103 106 105 95 87 69 57 81 104 112 117 116 110 100 96 93 79 78 66 53 45 36 34 31 28 30 34 36
154 152 155 160 155 142 142 144 132 134 127 118 107 87 79 97 107 108 100 95 86 77 59 80 86 101 108 105 102 94 96 87 72 62 49 38 27 29 25 20 20 16 26
160 154 155 159 154 145 146 141 138 128 131 132 107 80 55 63 84 105 119 107 104 103 83 65 47 53 81 91 84 84 98 105 50 40 30 24 13 8 7 11 12 4 8
162 159 161 163 160 161 162 153 139 135 129 128 104 78 29 34 67 71 98 119 115 107 102 96 78 25 25 64 67 64 80 163 333 338 350 353 348 344 343 348 356 0 360
167 168 164 168 168 159 157 157 147 140 141 145 134 126 93 3 359 27 63 116 113 94 106 118 113 96 36 37 18 37 13 332 268 321 341 358 349 342 344 351 355 352 349
172 170 171 171 172 168 170 170 164 152 158 163 146 146 153 194 247 325 327 81 114 116 209 180 131 146 94 64 8 351 352 335 311 315 320 340 340 334 339 346 345 346 344
178 177 177 177 176 174 171 176 173 160 158 164 152 112 134 150 154 189 306 318 256 194 250 294 304 42 340 202 309 326 342 336 312 305 306 305 316 321 323 330 330 334 334
184 182 178 177 178 178 176 174 169 164 165 167 165 154 122 97 124 148 205 265 305 286 264 247 232 230 242 242 254 275 337 313 296 297 297 293 299 309 316 321 325 328 328
187 187 180 178 181 179 177 178 175 173 173 166 163 160 159 161 172 155 172 216 248 276 275 255 223 225 233 240 276 292 314 317 302 300 299 296 303 310 313 317 318 318 321
195 197 189 183 183 183 178 171 172 180 177 172 173 176 172 173 158 153 150 169 225 273 285 272 244 227 241 233 262 274 305 311 304 296 293 291 301 308 308 307 309 311 312
201 194 189 186 185 183 180 175 174 181 179 179 180 177 172 181 164 164 161 155 165 263 270 262 274 237 233 221 248 252 276 301 299 297 293 297 303 302 302 302 304 308 309
196 191 190 187 186 185 183 177 180 182 178 185 184 180 176 182 177 175 164 163 161 194 240 245 247 257 245 223 253 233 244 285 292 294 293 298 300 295 296 300 303 304 304
190 190 193 191 187 186 185 183 183 179 179 190 184 178 183 180 177 173 173 174 170 174 218 230 228 241 245 263 272 266 265 291 291 289 284 283 285 287 293 294 293 297 299
188 192 197 193 190 189 186 185 187 182 184 187 185 185 192 181 179 179 172 175 180 170 204 246 239 244 229 236 281 273 273 271 281 287 279 280 281 283 285 290 293 298 298
192 189 193 194 191 191 189 187 188 186 187 191 192 188 195 184 186 188 185 190 191 184 184 217 239 239 243 244 247 262 287 287 276 285 281 280 281 284 285 287 290 295 298
190 185 186 193 193 191 190 190 187 188 193 195 193 192 195 185 194 197 194 196 194 187 180 189 225 232 248 259 269 285 286 286 286 290 287 279 281 284 284 285 287 291 295
185 183 186 191 190 188 188 187 182 184 189 192 194 196 197 195 196 196 196 197 186 177 170 178 205 226 236 257 235 266 288 277 284 295 289 286 284 284 283 287 288 290 292
186 185 183 188 187 187 189 186 185 185 188 193 197 202 202 199 200 201 197 193 184 183 181 188 210 224 229 224 237 233 264 283 285 267 276 276 272 264 267 279 285 283 285
181 183 184 186 192 197 189 191 189 189 193 196 202 207 207 204 203 205 206 201 193 190 195 201 216 228 234 227 221 230 252 285 284 260 264 278 254 257 258 254 276 282 281
173 182 186 187 196 194 190 194 195 190 194 200 201 199 205 207 201 194 198 204 211 211 206 203 214 226 225 218 208 220 229 242 258 271 267 275 266 262 262 277 283 279 281
168 181 185 189 196 199 192 195 191 189 194 204 204 200 202 206 200 186 181 196 214 219 218 215 217 226 224 213 207 215 225 246 277 271 240 266 275 273 283 274 280 283 288
159 173 177 180 194 209 198 194 188 182 195 207 208 201 199 203 200 191 184 192 212 232 230 221 226 232 231 223 202 172 202 245 277 273 239 248 279 296 285 269 274 289 295
151 149 148 163 183 206 200 196 190 186 194 200 201 205 208 206 202 199 195 193 208 222 203 205 225 248 236 218 214 202 200 217 259 269 238 235 269 314 300 276 266 283 291